Date String (YYYY-MM-DD hh:mm:ss) UTC,Instrument flags,Ambient pressure (hPa),Sample flow (lpm),Bypass flow (lpm),Sample temperature (°C),Ambient temperature (°C),ASC tube jacket temperature (°C),LED temperature (°C),Box temperature (°C),Sample RH (%),Span deviation,Mass concentration (μg/m³),Mass concentration (μg/m³),Mass concentration (μg/m³)
DateTimeUTC,F1_M11,P_M11,Q1_M11,Q2_M11,T1_M11,T2_M11,T3_M11,T4_M11,T5_M11,U1_M11,ZSPAN_M11,X0_M11,X2_M11,X1_M11
2022-04-24 22:00:00,,0828.1,5.00,0.00,25.7,24.8,00.0,34.6,27.6,14.3,0000.0,0002.78,0001.53,0001.17
2022-04-24 22:01:00,,0828.1,5.01,0.00,25.7,24.7,00.0,34.6,27.5,14.2,0000.0,0002.98,0001.55,0001.17
2022-04-24 22:02:00,,0828.1,4.98,0.00,25.7,24.7,00.0,34.6,27.6,14.4,0000.0,0003.03,0001.57,0001.16
2022-04-24 22:03:00,,0828.1,5.02,0.00,25.8,24.7,00.0,34.6,27.6,14.3,0000.0,0002.92,0001.54,0001.15
2022-04-24 22:04:00,,0828.1,4.98,0.00,25.8,24.8,00.0,34.6,27.6,14.2,0000.0,0002.88,0001.54,0001.14
2022-04-24 22:05:00,,0828.1,5.01,0.00,25.8,24.8,00.0,34.6,27.6,14.1,0000.0,0003.03,0001.56,0001.13
2022-04-24 22:06:00,,0828.1,5.00,0.00,25.8,24.8,00.0,34.6,27.6,14.0,0000.0,0003.13,0001.55,0001.13
2022-04-24 22:07:00,,0828.2,5.00,0.00,25.8,24.8,00.0,34.7,27.6,13.7,0000.0,0003.14,0001.55,0001.12
2022-04-24 22:08:00,,0828.2,5.00,0.00,25.8,24.8,00.0,34.7,27.6,13.8,0000.0,0003.25,0001.55,0001.13
2022-04-24 22:09:00,,0828.1,4.99,0.00,25.8,24.8,00.0,34.7,27.7,13.9,0000.0,0003.28,0001.52,0001.12
2022-04-24 22:10:00,,0828.1,5.01,0.00,25.8,24.9,00.0,34.7,27.7,14.1,0000.0,0003.39,0001.54,0001.12
2022-04-24 22:11:00,,0828.1,5.00,0.00,25.9,24.9,00.0,34.7,27.7,13.6,0000.0,0003.25,0001.54,0001.11
2022-04-24 22:12:00,,0828.2,5.01,0.00,25.9,25.0,00.0,34.7,27.8,13.4,0000.0,0003.16,0001.53,0001.09
2022-04-24 22:13:00,,0828.1,5.00,0.00,25.9,25.0,00.0,34.7,27.7,13.6,0000.0,0003.16,0001.51,0001.06
2022-04-24 22:14:00,,0828.1,5.00,0.00,25.9,25.0,00.0,34.7,27.7,13.5,0000.0,0003.14,0001.51,0001.05
2022-04-24 22:15:00,,0828.2,4.99,0.00,25.9,25.0,00.0,34.8,27.8,13.6,0000.0,0003.06,0001.48,0001.03
2022-04-24 22:16:00,,0828.1,5.01,0.00,26.0,25.1,00.0,34.8,27.8,13.9,0000.0,0002.86,0001.41,0001.01
2022-04-24 22:17:00,,0828.2,5.00,0.00,26.0,25.1,00.0,34.8,27.8,13.8,0000.0,0003.28,0001.40,0001.00
2022-04-24 22:18:00,,0828.1,4.99,0.00,26.0,25.1,00.0,34.8,27.8,13.6,0000.0,0004.12,0001.42,0001.01
2022-04-24 22:19:00,,0828.1,4.99,0.00,26.0,25.1,00.0,34.8,27.8,13.6,0000.0,0004.02,0001.42,0001.00
2022-04-24 22:20:00,,0828.2,5.00,0.00,26.0,25.1,00.0,34.8,27.9,13.7,0000.0,0003.87,0001.41,0000.99
2022-04-24 22:21:00,,0828.1,5.01,0.00,26.0,25.1,00.0,34.8,27.8,13.7,0000.0,0003.88,0001.39,0000.98
2022-04-24 22:22:00,,0828.1,5.00,0.00,26.0,25.2,00.0,34.8,27.8,13.5,0000.0,0003.83,0001.37,0000.97
2022-04-24 22:23:00,,0828.2,5.00,0.00,26.0,25.2,00.0,34.9,27.9,13.6,0000.0,0003.75,0001.41,0000.99
2022-04-24 22:24:00,,0828.1,4.99,0.00,26.0,25.2,00.0,34.9,27.9,13.5,0000.0,0003.74,0001.41,0001.01
2022-04-24 22:25:00,,0828.2,5.01,0.00,26.0,25.2,00.0,34.9,27.9,13.5,0000.0,0003.71,0001.39,0001.01
2022-04-24 22:26:00,,0828.1,4.99,0.00,26.0,25.2,00.0,34.9,27.9,13.6,0000.0,0003.74,0001.39,0001.01
2022-04-24 22:27:00,,0828.2,5.00,0.00,26.1,25.2,00.0,34.9,27.9,13.7,0000.0,0003.73,0001.39,0001.01
2022-04-24 22:28:00,,0828.2,5.00,0.00,26.1,25.2,00.0,34.9,27.9,13.5,0000.0,0003.30,0001.38,0001.01
2022-04-24 22:29:00,,0828.3,5.01,0.00,26.1,25.3,00.0,34.9,27.9,13.5,0000.0,0002.30,0001.37,0001.01
2022-04-24 22:30:00,,0828.5,5.00,0.00,26.1,25.3,00.0,34.9,28.0,13.5,0000.0,0002.27,0001.35,0001.00
2022-04-24 22:31:00,,0828.2,4.99,0.00,26.1,25.3,00.0,35.0,28.0,13.4,0000.0,0002.49,0001.37,0001.00
2022-04-24 22:32:00,,0828.3,5.00,0.00,26.1,25.3,00.0,35.0,28.1,13.6,0000.0,0002.32,0001.33,0000.99
2022-04-24 22:33:00,,0828.2,5.00,0.00,26.2,25.4,00.0,35.0,28.1,13.4,0000.0,0002.25,0001.32,0000.98
2022-04-24 22:34:00,,0828.2,5.01,0.00,26.2,25.4,00.0,35.0,28.1,13.0,0000.0,0002.33,0001.30,0000.95
2022-04-24 22:35:00,,0828.3,5.00,0.00,26.2,25.4,00.0,35.0,28.1,13.3,0000.0,0002.25,0001.26,0000.93
2022-04-24 22:36:00,,0828.3,4.99,0.00,26.2,25.4,00.0,35.0,28.1,13.6,0000.0,0002.38,0001.28,0000.91
2022-04-24 22:37:00,,0828.3,5.00,0.00,26.2,25.4,00.0,35.0,28.1,12.9,0000.0,0002.30,0001.27,0000.90
2022-04-24 22:38:00,,0828.4,5.00,0.00,26.2,25.4,00.0,35.0,28.1,12.3,0000.0,0002.24,0001.22,0000.86
2022-04-24 22:39:00,,0828.3,4.99,0.00,26.2,25.4,00.0,35.0,28.1,12.8,0000.0,0002.23,0001.19,0000.83
2022-04-24 22:40:00,,0828.4,5.00,0.00,26.2,25.5,00.0,35.1,28.2,12.8,0000.0,0002.14,0001.14,0000.79
2022-04-24 22:41:00,,0828.3,5.00,0.00,26.2,25.5,00.0,35.1,28.1,12.6,0000.0,0002.37,0001.13,0000.77
2022-04-24 22:42:00,,0828.3,5.00,0.00,26.3,25.5,00.0,35.1,28.1,12.7,0000.0,0002.29,0001.10,0000.76
2022-04-24 22:43:00,,0828.3,5.00,0.00,26.3,25.5,00.0,35.1,28.2,12.7,0000.0,0002.23,0001.07,0000.74
2022-04-24 22:44:00,,0828.4,4.99,0.00,26.3,25.5,00.0,35.1,28.2,12.6,0000.0,0002.22,0001.09,0000.72
2022-04-24 22:45:00,,0828.4,5.00,0.00,26.3,25.5,00.0,35.1,28.2,12.7,0000.0,0002.13,0001.09,0000.72
2022-04-24 22:46:00,,0828.4,5.02,0.00,26.3,25.5,00.0,35.1,28.2,13.9,0000.0,0002.66,0001.10,0000.73
2022-04-24 22:47:00,,0828.3,5.01,0.00,26.3,25.5,00.0,35.1,28.2,14.1,0000.0,0002.55,0001.07,0000.73
2022-04-24 22:48:00,,0828.3,4.99,0.00,26.3,25.5,00.0,35.1,28.2,14.4,0000.0,0002.53,0001.07,0000.73
2022-04-24 22:49:00,,0828.4,4.99,0.00,26.3,25.5,00.0,35.1,28.2,14.4,0000.0,0003.17,0001.15,0000.75
2022-04-24 22:50:00,,0828.4,4.99,0.00,26.3,25.5,00.0,35.2,28.2,14.3,0000.0,0003.61,0001.21,0000.77
2022-04-24 22:51:00,,0828.4,5.00,0.00,26.3,25.5,00.0,35.2,28.2,14.4,0000.0,0003.78,0001.25,0000.78
2022-04-24 22:52:00,,0828.4,5.01,0.00,26.3,25.5,00.0,35.2,28.2,14.3,0000.0,0003.64,0001.23,0000.78
2022-04-24 22:53:00,,0828.5,5.00,0.00,26.3,25.5,00.0,35.2,28.2,14.3,0000.0,0003.64,0001.23,0000.76
2022-04-24 22:54:00,,0828.4,5.00,0.00,26.3,25.5,00.0,35.2,28.2,14.2,0000.0,0003.80,0001.26,0000.77
2022-04-24 22:55:00,,0828.4,5.00,0.00,26.3,25.5,00.0,35.2,28.2,14.1,0000.0,0003.88,0001.27,0000.77
2022-04-24 22:56:00,,0828.5,5.00,0.00,26.3,25.5,00.0,35.2,28.2,14.1,0000.0,0003.85,0001.25,0000.78
2022-04-24 22:57:00,,0828.4,5.01,0.00,26.3,25.5,00.0,35.2,28.2,14.1,0000.0,0003.47,0001.22,0000.78
2022-04-24 22:58:00,,0828.5,5.01,0.00,26.3,25.5,00.0,35.2,28.2,14.2,0000.0,0003.31,0001.20,0000.76
2022-04-24 22:59:00,,0828.4,5.00,0.00,26.3,25.5,00.0,35.2,28.2,14.3,0000.0,0003.48,0001.17,0000.75
